EZY3X0F LIMC-LIEO

Flight info

Callsign EZY3X0F
Flight time 1h 5m
Altitude 31000
Route ROBAS DCT EKPAL DCT TINKU DCT GOVGO DCT BATOX
Aircraft A320/M-SDE3FGHIRWY/LB1

Departure

Time 2026-05-05 11:38
Airport Milan Malpensa International Airport (LIMC)

Arrival

Time 2026-05-05 12:44
Airport Olbia Costa Smeralda Airport (LIEO)
Time Latitude Longitude Altitude Speed Heading
2026-05-05 11:07 45.62707 8.71630 751 ft 0 kts 349°
2026-05-05 11:28 45.62702 8.71632 752 ft 4 kts 349°
2026-05-05 11:28 45.62676 8.71637 753 ft 4 kts 358°
2026-05-05 11:29 45.62649 8.71635 753 ft 4 kts 13°
2026-05-05 11:29 45.62626 8.71621 752 ft 4 kts 50°
2026-05-05 11:29 45.62619 8.71605 748 ft 0 kts 79°
2026-05-05 11:31 45.62622 8.71627 752 ft 5 kts 79°
2026-05-05 11:32 45.62634 8.71712 753 ft 12 kts 79°
2026-05-05 11:32 45.62654 8.71858 751 ft 18 kts 78°
2026-05-05 11:32 45.62630 8.72036 751 ft 22 kts 154°
2026-05-05 11:32 45.62473 8.72079 751 ft 24 kts 170°
2026-05-05 11:33 45.62309 8.72123 751 ft 24 kts 169°
2026-05-05 11:33 45.62213 8.72254 750 ft 23 kts 78°
2026-05-05 11:33 45.62247 8.72489 746 ft 26 kts 79°
2026-05-05 11:33 45.62281 8.72736 747 ft 24 kts 78°
2026-05-05 11:34 45.62304 8.72973 753 ft 24 kts 95°
2026-05-05 11:34 45.62198 8.73057 751 ft 18 kts 171°
2026-05-05 11:34 45.62077 8.73085 753 ft 17 kts 171°
2026-05-05 11:34 45.61970 8.73111 752 ft 15 kts 170°
2026-05-05 11:35 45.61878 8.73134 751 ft 13 kts 170°
2026-05-05 11:35 45.61799 8.73157 751 ft 11 kts 164°
2026-05-05 11:35 45.61740 8.73204 751 ft 9 kts 133°
2026-05-05 11:35 45.61707 8.73269 752 ft 7 kts 124°
2026-05-05 11:36 45.61680 8.73328 750 ft 8 kts 123°
2026-05-05 11:36 45.61644 8.73406 753 ft 11 kts 122°
2026-05-05 11:36 45.61596 8.73516 749 ft 15 kts 115°
2026-05-05 11:36 45.61596 8.73689 743 ft 22 kts 69°
2026-05-05 11:37 45.61724 8.73707 745 ft 21 kts 348°
2026-05-05 11:37 45.61750 8.73699 742 ft 0 kts 348°
2026-05-05 11:37 45.61907 8.73654 745 ft 56 kts 350°
2026-05-05 11:38 45.62510 8.73492 745 ft 118 kts 349°
2026-05-05 11:38 45.63489 8.73220 748 ft 166 kts 349°
2026-05-05 11:38 45.64681 8.72892 1086 ft 180 kts 349°
2026-05-05 11:38 45.65914 8.72596 1840 ft 179 kts 357°
2026-05-05 11:39 45.67201 8.72597 2309 ft 195 kts
2026-05-05 11:39 45.68634 8.72609 2580 ft 216 kts
2026-05-05 11:39 45.70196 8.72613 3005 ft 231 kts
2026-05-05 11:39 45.71812 8.72440 3661 ft 238 kts 342°
2026-05-05 11:40 45.73151 8.71067 4314 ft 245 kts 303°
2026-05-05 11:40 45.73639 8.68769 4958 ft 246 kts 263°
2026-05-05 11:40 45.73293 8.66378 5660 ft 246 kts 249°
2026-05-05 11:40 45.72727 8.64097 6440 ft 246 kts 247°
2026-05-05 11:41 45.72110 8.61816 7222 ft 246 kts 247°
2026-05-05 11:41 45.71367 8.59619 7960 ft 248 kts 234°
2026-05-05 11:41 45.70340 8.57501 8334 ft 270 kts 234°
2026-05-05 11:41 45.69278 8.55212 8994 ft 280 kts 235°
2026-05-05 11:42 45.68074 8.53029 9823 ft 281 kts 222°
2026-05-05 11:42 45.66487 8.51408 10598 ft 282 kts 206°
2026-05-05 11:42 45.64555 8.50585 10920 ft 303 kts 185°
2026-05-05 11:42 45.62399 8.51070 11104 ft 330 kts 159°
2026-05-05 11:43 45.60305 8.52591 11301 ft 351 kts 154°
2026-05-05 11:43 45.58142 8.54282 11831 ft 358 kts 154°
2026-05-05 11:43 45.55956 8.56018 12458 ft 362 kts 154°
2026-05-05 11:43 45.53746 8.57775 13104 ft 365 kts 154°
2026-05-05 11:44 45.51515 8.59543 13738 ft 368 kts 154°
2026-05-05 11:44 45.49265 8.61313 14307 ft 371 kts 155°
2026-05-05 11:44 45.46988 8.63092 14872 ft 374 kts 155°
2026-05-05 11:44 45.44696 8.64872 15425 ft 377 kts 155°
2026-05-05 11:45 45.42377 8.66667 15982 ft 381 kts 155°
2026-05-05 11:45 45.40044 8.68470 16523 ft 384 kts 155°
2026-05-05 11:45 45.37716 8.70267 17053 ft 387 kts 156°
2026-05-05 11:45 45.35336 8.72100 17598 ft 390 kts 156°
2026-05-05 11:46 45.32942 8.73941 18140 ft 393 kts 156°
2026-05-05 11:46 45.30525 8.75801 18631 ft 397 kts 156°
2026-05-05 11:46 45.28089 8.77676 19105 ft 399 kts 156°
2026-05-05 11:46 45.25645 8.79560 19571 ft 401 kts 156°
2026-05-05 11:47 45.23184 8.81456 20001 ft 404 kts 156°
2026-05-05 11:47 45.20706 8.83367 20450 ft 406 kts 156°
2026-05-05 11:47 45.18214 8.85286 20930 ft 409 kts 156°
2026-05-05 11:47 45.15706 8.87213 21364 ft 411 kts 156°
2026-05-05 11:48 45.10678 8.91069 22175 ft 416 kts 156°
2026-05-05 11:48 45.08124 8.93023 22578 ft 418 kts 156°
2026-05-05 11:48 45.05560 8.94982 22961 ft 421 kts 156°
2026-05-05 11:49 45.02981 8.96954 23334 ft 423 kts 157°
2026-05-05 11:49 45.00381 8.98939 23633 ft 426 kts 156°
2026-05-05 11:49 44.97763 9.00931 23918 ft 429 kts 157°
2026-05-05 11:49 44.95126 9.02935 24209 ft 431 kts 157°
2026-05-05 11:50 44.92516 9.04922 24494 ft 433 kts 157°
2026-05-05 11:50 44.89861 9.06943 24800 ft 435 kts 157°
2026-05-05 11:50 44.87192 9.08973 25093 ft 437 kts 157°
2026-05-05 11:50 44.84514 9.11004 25396 ft 439 kts 157°
2026-05-05 11:51 44.81820 9.13045 25672 ft 441 kts 157°
2026-05-05 11:51 44.79111 9.15092 25889 ft 443 kts 157°
2026-05-05 11:51 44.76386 9.17148 26140 ft 446 kts 157°
2026-05-05 11:51 44.73643 9.19213 26406 ft 447 kts 157°
2026-05-05 11:52 44.70897 9.21279 26643 ft 449 kts 157°
2026-05-05 11:52 44.68136 9.23358 26854 ft 451 kts 157°
2026-05-05 11:52 44.65409 9.25413 27098 ft 452 kts 158°
2026-05-05 11:52 44.62629 9.27506 27327 ft 454 kts 157°
2026-05-05 11:53 44.59838 9.29606 27552 ft 456 kts 157°
2026-05-05 11:53 44.57035 9.31711 27798 ft 457 kts 158°
2026-05-05 11:53 44.54224 9.33815 28096 ft 459 kts 158°
2026-05-05 11:53 44.51410 9.35920 28422 ft 459 kts 158°
2026-05-05 11:54 44.48598 9.38022 28755 ft 457 kts 158°
2026-05-05 11:54 44.45791 9.40119 29084 ft 456 kts 158°
2026-05-05 11:54 44.43030 9.42181 29402 ft 456 kts 158°
2026-05-05 11:54 44.40236 9.44266 29744 ft 455 kts 158°
2026-05-05 11:55 44.37453 9.46341 30038 ft 454 kts 158°
2026-05-05 11:55 44.34666 9.48416 30295 ft 454 kts 158°
2026-05-05 11:55 44.31880 9.50487 30561 ft 453 kts 158°
2026-05-05 11:55 44.29094 9.52550 30836 ft 452 kts 158°
2026-05-05 11:56 44.27257 9.53907 30938 ft 452 kts 158°
2026-05-05 11:56 44.24473 9.55964 30984 ft 452 kts 158°
2026-05-05 11:56 44.18008 9.60738 30988 ft 453 kts 158°
2026-05-05 11:57 44.12442 9.64846 30991 ft 453 kts 158°
2026-05-05 11:57 44.07776 9.68274 30994 ft 453 kts 158°
2026-05-05 11:58 44.02242 9.72337 30997 ft 453 kts 158°
2026-05-05 11:58 43.96671 9.76424 30981 ft 453 kts 158°
2026-05-05 11:59 43.90194 9.81158 30982 ft 453 kts 158°
2026-05-05 11:59 43.85525 9.84564 30965 ft 453 kts 158°
2026-05-05 12:00 43.79977 9.88602 30969 ft 454 kts 158°
2026-05-05 12:00 43.74385 9.92674 30975 ft 455 kts 158°
2026-05-05 12:01 43.68781 9.96742 30981 ft 455 kts 158°
2026-05-05 12:01 43.63167 10.00791 30981 ft 455 kts 158°
2026-05-05 12:02 43.57592 10.04815 30961 ft 455 kts 158°
2026-05-05 12:02 43.51979 10.08868 30978 ft 456 kts 158°
2026-05-05 12:03 43.46355 10.12915 30980 ft 456 kts 158°
2026-05-05 12:03 43.40723 10.16952 30979 ft 456 kts 158°
2026-05-05 12:04 43.35132 10.20955 30956 ft 457 kts 158°
2026-05-05 12:04 43.29486 10.24992 30964 ft 458 kts 158°
2026-05-05 12:05 43.23828 10.29029 30976 ft 459 kts 158°
2026-05-05 12:05 43.17981 10.32268 30976 ft 447 kts 173°
2026-05-05 12:06 43.11905 10.32946 30966 ft 434 kts 189°
2026-05-05 12:06 43.05905 10.32356 30973 ft 435 kts 189°
2026-05-05 12:07 42.99862 10.31792 30971 ft 436 kts 189°
2026-05-05 12:07 42.93813 10.31244 30970 ft 436 kts 189°
2026-05-05 12:08 42.87749 10.30688 30981 ft 437 kts 189°
2026-05-05 12:08 42.81687 10.30129 30987 ft 437 kts 189°
2026-05-05 12:09 42.75659 10.29571 30972 ft 437 kts 189°
2026-05-05 12:09 42.69588 10.29014 30982 ft 437 kts 189°
2026-05-05 12:10 42.63518 10.28451 30986 ft 437 kts 189°
2026-05-05 12:10 42.57446 10.27896 30988 ft 437 kts 189°
2026-05-05 12:11 42.51417 10.27346 30969 ft 437 kts 189°
2026-05-05 12:11 42.45343 10.26788 30974 ft 437 kts 189°
2026-05-05 12:12 42.39267 10.26229 30975 ft 438 kts 189°
2026-05-05 12:12 42.33191 10.25674 30980 ft 438 kts 189°
2026-05-05 12:13 42.27107 10.25119 30980 ft 438 kts 189°
2026-05-05 12:13 42.21071 10.24569 30984 ft 438 kts 189°
2026-05-05 12:14 42.14987 10.24019 30975 ft 438 kts 190°
2026-05-05 12:14 42.08903 10.23471 30975 ft 438 kts 190°
2026-05-05 12:15 42.02823 10.22928 30987 ft 437 kts 190°
2026-05-05 12:15 41.96792 10.22381 30990 ft 437 kts 190°
2026-05-05 12:16 41.90721 10.21824 30976 ft 438 kts 190°
2026-05-05 12:16 41.84635 10.21286 30983 ft 438 kts 190°
2026-05-05 12:17 41.78544 10.20738 30788 ft 439 kts 190°
2026-05-05 12:17 41.75495 10.20460 30542 ft 440 kts 190°
2026-05-05 12:17 41.72481 10.20183 30310 ft 439 kts 190°
2026-05-05 12:18 41.69432 10.19904 30067 ft 440 kts 190°
2026-05-05 12:18 41.66374 10.19626 29788 ft 441 kts 190°
2026-05-05 12:18 41.63314 10.19350 29513 ft 441 kts 190°
2026-05-05 12:18 41.60246 10.19079 29226 ft 442 kts 189°
2026-05-05 12:19 41.57172 10.18812 28182 ft 445 kts 189°
2026-05-05 12:19 41.54075 10.18540 27079 ft 447 kts 189°
2026-05-05 12:19 41.50952 10.18265 26025 ft 450 kts 188°
2026-05-05 12:19 41.47860 10.17996 25386 ft 442 kts 188°
2026-05-05 12:20 41.44797 10.17729 24644 ft 439 kts 188°
2026-05-05 12:20 41.41803 10.17462 23928 ft 436 kts 188°
2026-05-05 12:20 41.38784 10.17190 23162 ft 434 kts 187°
2026-05-05 12:20 41.35785 10.16922 22476 ft 429 kts 187°
2026-05-05 12:21 41.32826 10.16660 21827 ft 424 kts 187°
2026-05-05 12:21 41.29896 10.16404 21183 ft 420 kts 187°
2026-05-05 12:21 41.26991 10.16152 20558 ft 416 kts 187°
2026-05-05 12:21 41.24136 10.15759 19946 ft 410 kts 194°
2026-05-05 12:22 41.21416 10.14740 19352 ft 403 kts 204°
2026-05-05 12:22 41.18949 10.13147 18768 ft 398 kts 213°
2026-05-05 12:22 41.16704 10.11047 18197 ft 394 kts 219°
2026-05-05 12:22 41.14529 10.08856 17599 ft 390 kts 218°
2026-05-05 12:23 41.12382 10.06702 17100 ft 385 kts 218°
2026-05-05 12:23 41.10261 10.04578 16596 ft 380 kts 218°
2026-05-05 12:23 41.08160 10.02478 16104 ft 376 kts 218°
2026-05-05 12:23 41.06081 10.00402 15618 ft 372 kts 218°
2026-05-05 12:24 41.04022 9.98349 15113 ft 369 kts 218°
2026-05-05 12:24 41.01983 9.96320 14621 ft 365 kts 218°
2026-05-05 12:24 40.99975 9.94326 14388 ft 354 kts 218°
2026-05-05 12:24 40.98064 9.92431 14266 ft 341 kts 218°
2026-05-05 12:25 40.96217 9.90552 14144 ft 328 kts 222°
2026-05-05 12:25 40.94686 9.88407 14025 ft 316 kts 233°
2026-05-05 12:25 40.93463 9.86055 13906 ft 305 kts 236°
2026-05-05 12:25 40.92291 9.83781 13764 ft 294 kts 236°
2026-05-05 12:26 40.91150 9.81589 13641 ft 285 kts 235°
2026-05-05 12:26 40.90041 9.79466 13507 ft 276 kts 235°
2026-05-05 12:26 40.88967 9.77415 13352 ft 268 kts 235°
2026-05-05 12:26 40.87919 9.75410 13195 ft 262 kts 235°
2026-05-05 12:27 40.86885 9.73427 13103 ft 262 kts 235°
2026-05-05 12:27 40.85869 9.71473 12991 ft 261 kts 236°
2026-05-05 12:27 40.84841 9.69500 12836 ft 260 kts 235°
2026-05-05 12:27 40.83812 9.67536 12678 ft 260 kts 235°
2026-05-05 12:28 40.82786 9.65581 12525 ft 259 kts 236°
2026-05-05 12:28 40.81763 9.63631 12373 ft 259 kts 236°
2026-05-05 12:28 40.80744 9.61682 12218 ft 258 kts 236°
2026-05-05 12:28 40.79726 9.59735 12070 ft 257 kts 236°
2026-05-05 12:29 40.78711 9.57794 11912 ft 256 kts 236°
2026-05-05 12:29 40.77699 9.55861 11769 ft 256 kts 236°
2026-05-05 12:29 40.76706 9.53964 11618 ft 255 kts 236°
2026-05-05 12:29 40.75699 9.52040 11468 ft 254 kts 236°
2026-05-05 12:30 40.74696 9.50121 11317 ft 254 kts 235°
2026-05-05 12:30 40.73693 9.48207 11157 ft 253 kts 235°
2026-05-05 12:30 40.72694 9.46309 11017 ft 252 kts 235°
2026-05-05 12:30 40.71697 9.44412 10863 ft 250 kts 236°
2026-05-05 12:31 40.70707 9.42531 10714 ft 250 kts 235°
2026-05-05 12:31 40.69716 9.40645 10566 ft 250 kts 236°
2026-05-05 12:31 40.68739 9.38783 10419 ft 250 kts 236°
2026-05-05 12:31 40.67748 9.36904 10270 ft 249 kts 235°
2026-05-05 12:32 40.66757 9.35029 10123 ft 249 kts 236°
2026-05-05 12:32 40.65773 9.33166 9975 ft 245 kts 235°
2026-05-05 12:32 40.64808 9.31345 9720 ft 240 kts 236°
2026-05-05 12:32 40.63868 9.29571 9617 ft 235 kts 236°
2026-05-05 12:33 40.62931 9.27795 9523 ft 236 kts 235°
2026-05-05 12:33 40.61992 9.26017 9394 ft 236 kts 236°
2026-05-05 12:33 40.61058 9.24247 9255 ft 236 kts 236°
2026-05-05 12:33 40.60135 9.22503 9123 ft 235 kts 236°
2026-05-05 12:34 40.59201 9.20741 8967 ft 234 kts 236°
2026-05-05 12:34 40.58270 9.18988 8809 ft 234 kts 235°
2026-05-05 12:34 40.57340 9.17239 8667 ft 233 kts 236°
2026-05-05 12:34 40.56675 9.15326 8519 ft 233 kts 262°
2026-05-05 12:35 40.56899 9.13227 8368 ft 239 kts 294°
2026-05-05 12:35 40.58009 9.11600 8209 ft 246 kts 323°
2026-05-05 12:35 40.59445 9.10355 8043 ft 248 kts 322°
2026-05-05 12:35 40.60836 9.09078 7881 ft 248 kts 321°
2026-05-05 12:36 40.62249 9.07756 7719 ft 248 kts 321°
2026-05-05 12:36 40.63781 9.06698 7534 ft 253 kts 345°
2026-05-05 12:36 40.65512 9.06839 7357 ft 253 kts 20°
2026-05-05 12:36 40.66885 9.08215 7200 ft 248 kts 54°
2026-05-05 12:37 40.67805 9.10095 7053 ft 240 kts 56°
2026-05-05 12:37 40.68721 9.11898 6910 ft 235 kts 55°
2026-05-05 12:37 40.69643 9.13668 6757 ft 234 kts 55°
2026-05-05 12:37 40.70568 9.15435 6519 ft 233 kts 55°
2026-05-05 12:38 40.71487 9.17195 6236 ft 233 kts 55°
2026-05-05 12:38 40.72388 9.18928 5930 ft 231 kts 55°
2026-05-05 12:38 40.73291 9.20670 5626 ft 229 kts 54°
2026-05-05 12:38 40.74185 9.22398 5340 ft 227 kts 56°
2026-05-05 12:39 40.75094 9.24111 5054 ft 228 kts 53°
2026-05-05 12:39 40.76060 9.25799 4826 ft 227 kts 52°
2026-05-05 12:39 40.77012 9.27423 4569 ft 226 kts 51°
2026-05-05 12:39 40.77938 9.29071 4375 ft 223 kts 54°
2026-05-05 12:40 40.78808 9.30711 4188 ft 222 kts 54°
2026-05-05 12:40 40.79673 9.32357 3860 ft 211 kts 54°
2026-05-05 12:40 40.80489 9.33907 3536 ft 200 kts 54°
2026-05-05 12:40 40.81267 9.35385 3236 ft 192 kts 53°
2026-05-05 12:41 40.82010 9.36796 2951 ft 184 kts 54°
2026-05-05 12:41 40.82724 9.38153 2670 ft 177 kts 53°
2026-05-05 12:41 40.83416 9.39470 2398 ft 171 kts 53°
2026-05-05 12:41 40.84079 9.40732 2147 ft 163 kts 54°
2026-05-05 12:42 40.84705 9.41921 1900 ft 156 kts 55°
2026-05-05 12:42 40.85312 9.43077 1680 ft 151 kts 55°
2026-05-05 12:42 40.85911 9.44218 1441 ft 149 kts 54°
2026-05-05 12:42 40.86502 9.45343 1209 ft 150 kts 56°
2026-05-05 12:43 40.87089 9.46462 992 ft 147 kts 58°
2026-05-05 12:43 40.87662 9.47560 765 ft 146 kts 57°
2026-05-05 12:43 40.88244 9.48673 504 ft 148 kts 57°
2026-05-05 12:43 40.88832 9.49780 236 ft 146 kts 57°
2026-05-05 12:44 40.89401 9.50865 49 ft 142 kts 58°
2026-05-05 12:44 40.89874 9.51774 33 ft 84 kts 55°
2026-05-05 12:44 40.90079 9.52174 34 ft 41 kts 56°
2026-05-05 12:44 40.90232 9.52465 35 ft 37 kts 55°
2026-05-05 12:45 40.90377 9.52692 34 ft 20 kts 12°
2026-05-05 12:45 40.90450 9.52597 33 ft 2 kts 275°
2026-05-05 12:46 40.90452 9.52570 34 ft 10 kts 275°
2026-05-05 12:46 40.90421 9.52421 34 ft 25 kts 236°
2026-05-05 12:46 40.90298 9.52200 34 ft 32 kts 235°
2026-05-05 12:46 40.90179 9.51965 34 ft 27 kts 244°
2026-05-05 12:47 40.90202 9.51742 32 ft 23 kts 258°
2026-05-05 12:47 40.90154 9.51631 34 ft 6 kts 251°
2026-05-05 12:47 40.90172 9.51600 34 ft 4 kts 331°
2026-05-05 12:47 40.90185 9.51588 34 ft 1 kts 326°
2026-05-05 12:48 40.90190 9.51584 33 ft 0 kts 326°
2026-05-05 12:48 40.90199 9.51575 34 ft 1 kts 326°
2026-05-05 12:48 40.90202 9.51573 34 ft 0 kts 325°